Asheboro, NC

3:11 PM EDT on September 23, 2017 (GMT -0400)
Asheboro Municipal

Weather History for KHBI - September, 2013

Change the Weather History Date:

Sunday, September 1, 2013

  Actual Average Record
Temperature  
Mean Temperature 78 °F -  
Max Temperature 88 °F 85 °F 96 °F (1941)
Min Temperature 68 °F 65 °F 47 °F (1946)
Cooling Degree Days 13    
Growing Degree Days 28 (Base 50)    
Moisture  
Dew Point 71 °F    
Average Humidity 88    
Maximum Humidity 100    
Minimum Humidity 58    
Precipitation  
Precipitation 0.91 in - - ()
Sea Level Pressure  
Sea Level Pressure 29.92 in    
Wind  
Wind Speed 3 mph (SSW)    
Max Wind Speed 13 mph    
Max Gust Speed 17 mph    
Visibility 8 miles    
Events Rain    
Averages and records for this station are not official NWS values.
T = Trace of Precipitation, MM = Missing Value Source: NWS Daily Summary

Daily Weather History Graph

Daily Weather History Graph

Search for Another Location

Airport or City:

Trip Planner

Search our weather history database for the weather conditions in past years. The results will help you decide how hot, cold, wet, or windy it might be!

Date:

Astronomy

Sep. 01, 2013 Rise Set
Actual Time 6:51 AM EDT 7:46 PM EDT
Civil Twilight 6:25 AM EDT 8:12 PM EDT
Nautical Twilight 5:54 AM EDT 8:43 PM EDT
Astronomical Twilight 5:22 AM EDT 9:15 PM EDT
Moon 3:17 AM EDT (9/1) 5:18 PM EDT (9/1)
Length of Visible Light 13h 46m
Length of Day
12h 54m
Waning Crescent, 14% of the Moon is Illuminated
Sep 1
Waning Crescent
Sep 5
New
Sep 12
First Quarter
Sep 19
Full
Sep 26
Last Quarter

Hourly Weather History & Observations

Time (EDT) Temp. Heat Index Dew Point Humidity Pressure Visibility Wind Dir Wind Speed Gust Speed Precip Events Conditions
12:15 AM 70.7 °F - 69.3 °F 95% 29.95 in 7.0 mi Calm Calm - N/A   Clear
12:35 AM 70.2 °F - 69.4 °F 98% 29.95 in 7.0 mi Calm Calm - N/A   Clear
12:55 AM 70.0 °F - 69.4 °F 98% 29.96 in 7.0 mi Calm Calm - N/A   Clear
1:15 AM 69.8 °F - 69.1 °F 98% 29.95 in 7.0 mi Calm Calm - N/A   Clear
1:35 AM 69.8 °F - 69.1 °F 98% 29.95 in 7.0 mi Calm Calm - N/A   Clear
1:55 AM 69.8 °F - 68.9 °F 97% 29.94 in 7.0 mi Calm Calm - N/A   Clear
2:15 AM 68.9 °F - 68.5 °F 99% 29.94 in 7.0 mi Calm Calm - N/A   Scattered Clouds
2:35 AM 70.0 °F - 68.9 °F 96% 29.93 in 10.0 mi Calm Calm - N/A   Scattered Clouds
2:55 AM 69.6 °F - 69.1 °F 98% 29.92 in 7.0 mi Calm Calm - N/A   Clear
3:35 AM 68.9 °F - 68.4 °F 98% 29.92 in 7.0 mi Calm Calm - N/A   Clear
3:55 AM 68.9 °F - 68.4 °F 98% 29.92 in 5.0 mi Calm Calm - N/A   Clear
4:15 AM 68.5 °F - 68.0 °F 98% 29.92 in 7.0 mi Calm Calm - N/A   Clear
4:35 AM 69.4 °F - 69.1 °F 99% 29.92 in 4.0 mi Calm Calm - N/A   Clear
4:55 AM 68.9 °F - 68.7 °F 99% 29.92 in 3.0 mi Calm Calm - N/A   Clear
5:15 AM 70.0 °F - 69.8 °F 99% 29.92 in 5.0 mi Calm Calm - N/A   Clear
5:35 AM 69.1 °F - 68.9 °F 99% 29.92 in 3.0 mi Calm Calm - N/A   Clear
5:55 AM 68.9 °F - 68.4 °F 98% 29.93 in 5.0 mi Calm Calm - N/A   Clear
6:15 AM 68.9 °F - 68.4 °F 98% 29.93 in 7.0 mi Calm Calm - N/A   Scattered Clouds
6:35 AM 69.3 °F - 68.4 °F 97% 29.93 in 7.0 mi Calm Calm - N/A   Mostly Cloudy
6:55 AM 70.7 °F - 70.7 °F 100% 29.93 in 4.0 mi Calm Calm - N/A   Overcast
7:15 AM 71.1 °F - 70.7 °F 99% 29.93 in 4.0 mi SSW 3.5 mph - N/A   Overcast
7:35 AM 71.6 °F - 71.2 °F 99% 29.94 in 2.5 mi SSW 3.5 mph - N/A   Overcast
7:55 AM 71.8 °F - 71.6 °F 99% 29.95 in 1.5 mi SW 3.5 mph - N/A   Overcast
8:15 AM 71.8 °F - 71.6 °F 99% 29.95 in 2.0 mi SW 3.5 mph - N/A   Overcast
8:35 AM 73.2 °F - 72.0 °F 96% 29.95 in 4.0 mi SSW 5.8 mph - N/A   Mostly Cloudy
8:55 AM 74.3 °F - 70.7 °F 88% 29.95 in 7.0 mi SSW 5.8 mph - N/A   Clear
9:15 AM 75.4 °F - 69.8 °F 83% 29.95 in 10.0 mi SSW 6.9 mph - N/A   Clear
9:35 AM 76.8 °F - 70.3 °F 80% 29.96 in 10.0 mi SSW 9.2 mph - N/A   Clear
9:55 AM 77.2 °F - 71.4 °F 82% 29.96 in 10.0 mi SSW 8.1 mph - N/A   Clear
10:15 AM 78.6 °F - 72.0 °F 80% 29.96 in 10.0 mi SSW 5.8 mph - N/A   Scattered Clouds
10:35 AM 79.3 °F - 72.0 °F 78% 29.96 in 10.0 mi SSW 6.9 mph - N/A   Clear
10:55 AM 79.2 °F - 72.0 °F 78% 29.96 in 10.0 mi SW 4.6 mph - N/A   Clear
11:15 AM 79.3 °F - 72.7 °F 80% 29.95 in 10.0 mi SSW 4.6 mph - N/A   Clear
11:35 AM 79.7 °F - 73.0 °F 80% 29.95 in 10.0 mi SSW 6.9 mph - N/A   Clear
11:55 AM 81.5 °F 86.7 °F 73.4 °F 76% 29.95 in 10.0 mi SW 8.1 mph - N/A   Clear
12:15 PM 83.3 °F 89.9 °F 73.8 °F 73% 29.95 in 10.0 mi SSW 10.4 mph - N/A   Scattered Clouds
12:35 PM 84.2 °F 90.9 °F 73.6 °F 70% 29.93 in 10.0 mi SW 6.9 mph - N/A   Scattered Clouds
12:55 PM 86.0 °F 93.0 °F 72.9 °F 65% 29.92 in 10.0 mi SSW 11.5 mph - N/A   Clear
1:15 PM 86.2 °F 93.0 °F 72.5 °F 64% 29.92 in 10.0 mi SW 10.4 mph 17.3 mph N/A   Clear
1:35 PM 87.6 °F 94.3 °F 72.1 °F 60% 29.91 in 10.0 mi SSW 12.7 mph - N/A   Clear
1:55 PM 87.8 °F 94.7 °F 72.3 °F 60% 29.90 in 10.0 mi SW 8.1 mph - N/A   Clear
2:15 PM 88.5 °F 95.3 °F 72.0 °F 58% 29.89 in 10.0 mi SSW 9.2 mph - N/A   Scattered Clouds
2:35 PM 88.3 °F 95.4 °F 72.1 °F 59% 29.89 in 10.0 mi SW 9.2 mph - N/A   Clear
2:55 PM 87.1 °F 94.1 °F 72.7 °F 62% 29.88 in 10.0 mi SSW 5.8 mph - N/A   Clear
3:15 PM 87.1 °F 94.1 °F 72.9 °F 62% 29.87 in 10.0 mi SSW 8.1 mph - N/A   Scattered Clouds
3:35 PM 77.5 °F - 73.9 °F 89% 29.86 in 7.0 mi Calm Calm - 0.04 in   Scattered Clouds
3:55 PM 82.6 °F 91.4 °F 77.2 °F 84% 29.85 in 7.0 mi Calm Calm - 0.04 in   Clear
4:15 PM 84.2 °F 93.0 °F 75.9 °F 76% 29.86 in 7.0 mi WSW 6.9 mph - 0.02 in   Scattered Clouds
4:35 PM 80.8 °F 86.9 °F 75.7 °F 85% 29.85 in 7.0 mi Calm Calm - 0.07 in Rain Light Rain
4:55 PM 83.5 °F 92.9 °F 77.2 °F 81% 29.83 in 7.0 mi South 4.6 mph - 0.07 in   Scattered Clouds
5:15 PM 86.2 °F 96.4 °F 76.1 °F 72% 29.84 in 10.0 mi South 8.1 mph - N/A   Clear
5:35 PM 86.2 °F 94.2 °F 73.9 °F 67% 29.84 in 10.0 mi South 8.1 mph - N/A   Clear
5:55 PM 84.6 °F 92.4 °F 74.5 °F 72% 29.85 in 7.0 mi SW 4.6 mph - N/A   Clear
6:15 PM 80.6 °F 85.0 °F 72.7 °F 77% 29.87 in 7.0 mi North 8.1 mph - N/A   Scattered Clouds
6:35 PM 77.0 °F - 70.9 °F 81% 29.87 in 10.0 mi North 6.9 mph - N/A   Mostly Cloudy
6:55 PM 74.7 °F - 70.5 °F 87% 29.90 in 10.0 mi North 5.8 mph - N/A   Mostly Cloudy
7:15 PM 70.5 °F - 69.6 °F 97% 29.92 in 1.5 mi SSW 8.1 mph 17.3 mph 0.55 in Rain Heavy Rain
7:35 PM 70.0 °F - 70.0 °F 100% 29.91 in 5.0 mi SSW 8.1 mph - 0.76 in Rain Light Rain
7:55 PM 69.8 °F - 69.8 °F 100% 29.89 in 10.0 mi SSW 5.8 mph - 0.77 in Rain Rain
8:15 PM 70.3 °F - 70.3 °F 100% 29.91 in 10.0 mi SSW 9.2 mph - N/A Rain Light Rain
8:35 PM 70.2 °F - 70.2 °F 100% 29.91 in 10.0 mi SSW 6.9 mph - 0.02 in Rain Light Rain
8:55 PM 69.8 °F - 69.8 °F 100% 29.90 in 10.0 mi Calm Calm - 0.02 in Rain Light Rain
9:15 PM 69.3 °F - 69.3 °F 100% 29.90 in 7.0 mi Calm Calm - N/A Rain Light Rain
9:35 PM 69.8 °F - 69.8 °F 100% 29.92 in 7.0 mi Calm Calm - 0.01 in   Clear
9:55 PM 69.3 °F - 69.3 °F 100% 29.92 in 10.0 mi Calm Calm - 0.01 in   Clear
10:15 PM 69.1 °F - 69.1 °F 100% 29.91 in 10.0 mi Calm Calm - N/A   Clear
10:35 PM 68.9 °F - 68.9 °F 100% 29.92 in 10.0 mi Calm Calm - N/A   Clear
10:55 PM 68.9 °F - 68.9 °F 100% 29.91 in 10.0 mi Calm Calm - N/A   Clear
11:15 PM 68.9 °F - 68.9 °F 100% 29.92 in 10.0 mi Calm Calm - N/A   Clear
11:35 PM 68.9 °F - 68.9 °F 100% 29.92 in 10.0 mi Calm Calm - N/A   Clear
11:55 PM 68.9 °F - 68.9 °F 100% 29.92 in 10.0 mi Calm Calm - N/A   Clear